星链-2607 (STARLINK-2607 )

导读 | 豆包AI

STARLINK-2607是美国SpaceX公司星链(Starlink)星座中的一颗低轨通信卫星,于2021年5月4日发射升空。该卫星运行在约550公里高度的近地轨道,属于Starlink v1.5平台,旨在为全球用户提供高速卫星互联网接入服务,尤其助力偏远及基础设施薄弱地区实现宽带覆盖,目前处于在轨运行状态。作为星链巨型星座的组成部分,它采用先进通信技术,具备自主变轨避撞能力,可支撑低延迟、高带宽的全球网络连接,设计寿命约5至7年。

基本信息
目录编号:
48391
目录名称:
STARLINK-2607
国际标识:
2021-038AQ
轨道中心:
EARTH
卫星名称:
星链-2607
卫星全名:
星链-2607 (STARLINK-2607 )
卫星状态:
在轨 (已飞行1775 天)
发射日期:
2021-05-04 UTC
国别 :
美国 (US)
星等 :
--
轨道信息
数据来源 国际轨道数据
星历时间: 2026-03-14T07:42:54+0800
16小时前
查看轨道信息
半长轴: 6855.84km
偏心率: 0.0001173
轨道倾角: 53.162°
近地点辐角 114.864°
升交点赤经 312.886°
平近点角 245.249°
近地点: 476.898km
远地点: 478.508km
周期: 94.157分钟
每日圈数: 15.293673
详细信息
固有亮度:
5
最大亮度:
2.5
卫星平台:
Starlink V1.0
覆盖范围:
全球
运营商:
太空探索技术公司
运营商所在国:
美国
制造商(研发单位):
太空探索技术公司
制造商所在国:
美国
使用方式:
暂无
卫星简介
星链(Starlink)计划是由太空探索技术公司(SpaceX)提出的一个巨型低轨卫星互联网星座项目,计划在2019年至2024年间在太空搭建由约1.2万颗卫星组成的“星链”网络,其中1584颗将部署在地球上空550千米处的近地轨道,并从2020年开始工作。该卫星仍在工作。
2D轨道图
3D轨道图
轨道高度分析图
轨道倾角分析图
轨道综合分析图
查看轨道综合分析图